Погода в Кётене

Германия     51°45′17″N   11°57′11″E
темп.,
°C
ветер,
м/с
пор.,
м/с
влажн.,
%
обл.,
%
осадки,
мм/ч
давл.,
гПа
погр.,
м
8 марта, пн
пн801:00+2зсз5895100 0.1 1020441
04:00+2с4695100 1.0 1021427
07:000ссв249194 1.1 1021155
10:00+2св346219 0.0 1023641
13:00+5св344210 0.0 10231372
16:00+5всв23390 0.0 10231428
19:00+1всв22540 0.0 102322
22:000юв22597 0.0 102421
9 марта, вт
вт901:000ююв225954 0.0 102338
04:00−1ю2262100 0.0 102140
07:00−1юв2262100 0.0 102168
10:00+3ююв3550100 0.0 1021525
13:00+5ю3449100 0.0 10191055
16:00+5юз3451100 0.0 10181221
19:00+1ю358999 0.0 1018186
22:00+2ююв3493100 0.1 1018184
10 марта, ср
ср1001:00+2ююз1296100 0.1 101865
04:00+2зсз2494100 0.0 1018167
07:00+2ю119197 0.0 101838
10:00+5зюз238595 0.0 1019434
13:00+5юз468798 0.2 1018512
16:00+7ююз4775100 0.0 1016886
19:00+5ю41081100 0.0 1015292
22:00+6ююз51378100 0.0 1013756
11 марта, чт
чт1101:00+5ююз81488100 1.3 1010683
04:00+6ююз81589100 2.2 1005782
07:00+8юз91982100 3.9 1003883
10:00+10юз122079100 0.0 1001957
13:00+13юз12207299 0.1 9991416
16:00+10зюз81873100 0.6 9991606
19:00+8юз6167351 0.7 1000942
22:00+7зюз717718 0.0 10021138
12 марта, пт
пт1201:00+5зюз918708 0.0 10031190
04:00+4зюз10207864 0.0 10041340
07:00+4зюз6147969 0.1 1008955
10:00+7з9146292 0.2 10101744
13:00+9зюз9125279 0.3 10102026
16:00+9зюз8125451 0.1 10091906
19:00+6юз5127160 0.3 1009363
22:00+5ююз6147265 0.0 1009408